H1 CPF 2 NER 2025 10 9 9 282 01 glonass140 H2 1903001 9140 44299 2025 10 9 0 0 0 2025 10 12 23 45 0 900 1 1 0 0 0 1 H9 10 0 60957 0.00000 0 -20094016.669 -7704405.195 13710769.556 10 0 60957 900.00000 0 -18258742.690 -7559757.077 16146705.103 10 0 60957 1800.00000 0 -16137949.502 -7560808.672 18269434.645 10 0 60957 2700.00000 0 -13785200.003 -7741603.996 20037902.684 10 0 60957 3600.00000 0 -11261325.872 -8125947.976 21417935.162 10 0 60957 4500.00000 0 -8632085.635 -8726246.891 22382888.348 10 0 60957 5400.00000 0 -5965632.264 -9542840.771 22914152.582 10 0 60957 6300.00000 0 -3329894.424 -10563855.471 23001502.416 10 0 60957 7200.00000 0 -789978.704 -11765580.594 22643287.393 10 0 60957 8100.00000 0 1594301.114 -13113357.800 21846460.508 10 0 60957 9000.00000 0 3770667.070 -14562943.097 20626444.052 10 0 60957 9900.00000 0 5696301.001 -16062287.203 19006835.310 10 0 60957 10800.00000 0 7339371.255 -17553660.796 17018957.215 10 0 60957 11700.00000 0 8680100.078 -18976037.173 14701261.750 10 0 60957 12600.00000 0 9711328.261 -20267633.810 12098596.541 10 0 60957 13500.00000 0 10438554.335 -21368507.546 9261347.600 10 0 60957 14400.00000 0 10879447.144 -22223095.315 6244473.628 10 0 60957 15300.00000 0 11062852.386 -22782594.070 3106449.605 10 0 60957 16200.00000 0 11027334.987 -23007079.916 -91860.641 10 0 60957 17100.00000 0 10819318.549 -22867276.617 -3288381.509 10 0 60957 18000.00000 0 10490900.287 -22345898.082 -6421029.629 10 0 60957 18900.00000 0 10097433.883 -21438507.106 -9428921.270 10 0 60957 19800.00000 0 9694982.566 -20153852.621 -12253559.340 10 0 60957 20700.00000 0 9337750.610 -18513669.680 -14839976.337 10 0 60957 21600.00000 0 9075602.533 -16551948.927 -17137810.411 10 0 60957 22500.00000 0 8951775.764 -14313704.700 -19102292.971 10 0 60957 23400.00000 0 9000884.544 -11853292.146 -20695127.991 10 0 60957 24300.00000 0 9247300.524 -9232342.774 -21885245.395 10 0 60957 25200.00000 0 9703979.674 -6517403.957 -22649413.368 10 0 60957 26100.00000 0 10371786.188 -3777380.512 -22972697.311 10 0 60957 27000.00000 0 11239343.035 -1080884.744 -22848756.134 10 0 60957 27900.00000 0 12283416.456 1506394.713 -22279969.856 10 0 60957 28800.00000 0 13469819.027 3924195.667 -21277395.724 10 0 60957 29700.00000 0 14754793.817 6119952.581 -19860553.515 10 0 60957 30600.00000 0 16086821.685 8050739.808 -18057043.991 10 0 60957 31500.00000 0 17408775.601 9684807.203 -15902007.929 10 0 60957 32400.00000 0 18660331.035 11002644.669 -13437436.312 10 0 60957 33300.00000 0 19780530.382 11997532.201 -10711345.397 10 0 60957 34200.00000 0 20710392.725 12675553.720 -7776833.213 10 0 60957 35100.00000 0 21395458.220 13055075.853 -4691036.546 10 0 60957 36000.00000 0 21788159.202 13165715.491 -1514009.541 10 0 60957 36900.00000 0 21849917.496 13046841.667 1692453.252 10 0 60957 37800.00000 0 21552879.200 12745676.964 4866025.541 10 0 60957 38700.00000 0 20881213.788 12315080.480 7945065.303 10 0 60957 39600.00000 0 19831922.981 11811107.588 10869813.807 10 0 60957 40500.00000 0 18415125.744 11290450.769 13583553.996 10 0 60957 41400.00000 0 16653807.898 10807870.334 16033705.775 10 0 60957 42300.00000 0 14583047.287 10413723.755 18172837.301 10 0 60957 43200.00000 0 12248747.297 10151697.597 19959573.459 10 0 60957 44100.00000 0 9705931.671 10056837.085 21359385.041 10 0 60957 45000.00000 0 7016671.519 10153955.456 22345244.575 10 0 60957 45900.00000 0 4247730.135 10456489.108 22898137.483 10 0 60957 46800.00000 0 1468022.473 10965845.920 23007419.992 10 0 60957 47700.00000 0 -1254006.616 11671273.532 22671017.859 10 0 60957 48600.00000 0 -3852978.323 12550252.987 21895462.852 10 0 60957 49500.00000 0 -6269044.137 13569401.467 20695766.541 10 0 60957 50400.00000 0 -8450118.048 14685846.953 19095133.755 10 0 60957 51300.00000 0 -10353785.746 15849018.137 17124520.672 10 0 60957 52200.00000 0 -11948813.032 17002775.779 14822045.216 10 0 60957 53100.00000 0 -13216191.828 18087797.307 12232260.054 10 0 60957 54000.00000 0 -14149681.084 19044115.706 9405301.080 10 0 60957 54900.00000 0 -14755820.497 19813706.909 6395926.606 10 0 60957 55800.00000 0 -15053416.827 20343017.481 3262464.954 10 0 60957 56700.00000 0 -15072524.342 20585326.262 65689.993 10 0 60957 57600.00000 0 -14852962.129 20502840.009 -3132354.062 10 0 60957 58500.00000 0 -14442430.731 20068434.044 -6269555.881 10 0 60957 59400.00000 0 -13894307.368 19266963.131 -9284944.833 10 0 60957 60300.00000 0 -13265212.982 18096085.885 -12119879.572 10 0 60957 61200.00000 0 -12612454.146 16566566.320 -14719193.681 10 0 60957 62100.00000 0 -11991448.289 14702037.906 -17032275.525 10 0 60957 63000.00000 0 -11453241.702 12538238.286 -19014060.694 10 0 60957 63900.00000 0 -11042225.936 10121745.126 -20625917.052 10 0 60957 64800.00000 0 -10794149.903 7508264.655 -21836404.662 10 0 60957 65700.00000 0 -10734512.502 4760543.308 -22621895.345 10 0 60957 66600.00000 0 -10877404.505 1945988.913 -22967039.369 10 0 60957 67500.00000 0 -11224849.397 -865899.937 -22865069.866 10 0 60957 68400.00000 0 -11766671.678 -3606189.501 -22317938.764 10 0 60957 69300.00000 0 -12480898.745 -6209140.997 -21336281.282 10 0 60957 70200.00000 0 -13334679.794 -8614705.755 -19939209.500 10 0 60957 71100.00000 0 -14285683.140 -10770781.578 -18153938.831 10 0 60957 72000.00000 0 -15283912.905 -12635136.446 -16015254.627 10 0 60957 72900.00000 0 -16273868.128 -14176919.744 -13564829.387 10 0 60957 73800.00000 0 -17196952.632 -15377698.625 -10850404.114 10 0 60957 74700.00000 0 -17994033.182 -16231977.186 -7924850.245 10 0 60957 75600.00000 0 -18608037.136 -16747178.130 -4845131.094 10 0 60957 76500.00000 0 -18986479.081 -16943089.391 -1671183.828 10 0 60957 77400.00000 0 -19083809.016 -16850800.924 1535255.254 10 0 60957 78300.00000 0 -18863482.410 -16511178.441 4711858.353 10 0 60957 79200.00000 0 -18299664.453 -15972940.369 7796922.350 10 0 60957 80100.00000 0 -17378496.527 -15290420.913 10730569.187 10 0 60957 81000.00000 0 -16098871.700 -14521115.001 13455906.756 10 0 60957 81900.00000 0 -14472686.840 -13723109.634 15920127.767 10 0 60957 82800.00000 0 -12524561.077 -12952510.422 18075525.620 10 0 60957 83700.00000 0 -10291032.598 -12260971.707 19880408.352 10 0 60957 84600.00000 0 -7819267.367 -11693433.728 21299894.048 10 0 60957 85500.00000 0 -5165333.399 -11286161.190 22306573.544 10 0 60958 0.00000 0 -2392112.079 -11065164.584 22881028.949 10 0 60958 900.00000 0 433069.120 -11045069.383 23012199.441 10 0 60958 1800.00000 0 3240981.810 -11228479.840 22697587.661 10 0 60958 2700.00000 0 5963120.724 -11605862.992 21943304.458 10 0 60958 3600.00000 0 8534295.900 -12155957.740 20763950.597 10 0 60958 4500.00000 0 10895088.780 -12846691.820 19182337.974 10 0 60958 5400.00000 0 12994071.836 -13636568.684 17229055.159 10 0 60958 6300.00000 0 14789701.078 -14476466.923 14941884.771 10 0 60958 7200.00000 0 16251803.963 -15311777.643 12365082.899 10 0 60958 8100.00000 0 17362601.665 -16084790.951 9548533.290 10 0 60958 9000.00000 0 18117223.603 -16737232.092 6546791.479 10 0 60958 9900.00000 0 18523693.011 -17212841.052 3418036.399 10 0 60958 10800.00000 0 18602384.158 -17459887.185 222948.959 10 0 60958 11700.00000 0 18384973.882 -17433512.645 -2976461.164 10 0 60958 12600.00000 0 17912931.288 -17097805.023 -6118057.910 10 0 60958 13500.00000 0 17235609.012 -16427510.643 -9140786.970 10 0 60958 14400.00000 0 16408016.554 -15409314.848 -11985865.844 10 0 60958 15300.00000 0 15488369.530 -14042633.446 -14597932.147 10 0 60958 16200.00000 0 14535518.594 -12339880.119 -16926127.229 10 0 60958 17100.00000 0 13606366.860 -10326196.539 -18925093.382 10 0 60958 18000.00000 0 12753385.373 -8038654.595 -20555864.616 10 0 60958 18900.00000 0 12022332.052 -5524962.484 -21786633.098 10 0 60958 19800.00000 0 11450270.988 -2841727.313 -22593375.902 10 0 60958 20700.00000 0 11063976.239 -52345.716 -22960329.430 10 0 60958 21600.00000 0 10878787.978 2775390.369 -22880301.932 10 0 60958 22500.00000 0 10897969.661 5571873.474 -22354817.754 10 0 60958 23400.00000 0 11112593.599 8268338.731 -21394090.228 10 0 60958 24300.00000 0 11501959.874 10799489.744 -20016823.511 10 0 60958 25200.00000 0 12034530.834 13105982.887 -18249847.063 10 0 60958 26100.00000 0 12669341.423 15136666.499 -16127589.831 10 0 60958 27000.00000 0 13357825.286 16850481.774 -13691404.455 10 0 60958 27900.00000 0 14045978.816 18217946.375 -10988754.903 10 0 60958 28800.00000 0 14676770.806 19222159.443 -8072283.838 10 0 60958 29700.00000 0 15192694.909 19859286.954 -4998778.531 10 0 60958 30600.00000 0 15538356.002 20138508.493 -1828056.278 10 0 60958 31500.00000 0 15662980.181 20081429.321 1378208.031 10 0 60958 32400.00000 0 15522741.540 19720984.341 4557688.394 10 0 60958 33300.00000 0 15082806.860 19099882.001 7648623.949 10 0 60958 34200.00000 0 14319011.568 18268655.481 10591020.617 10 0 60958 35100.00000 0 13219096.176 17283404.808 13327814.407 10 0 60958 36000.00000 0 11783451.197 16203326.176 15805973.812 10 0 60958 36900.00000 0 10025339.361 15088133.193 17977520.209 10 0 60958 37800.00000 0 7970585.907 13995478.720 19800447.240 10 0 60958 38700.00000 0 5656749.866 12978485.331 21239522.429 10 0 60958 39600.00000 0 3131810.702 12083487.342 22266956.723 10 0 60958 40500.00000 0 452424.469 11348078.040 22862930.387 10 0 60958 41400.00000 0 -2318178.882 10799542.681 23015966.336 10 0 60958 42300.00000 0 -5112570.923 10453741.655 22723144.740 10 0 60958 43200.00000 0 -7861675.814 10314489.449 21990155.532 10 0 60958 44100.00000 0 -10497392.968 10373454.551 20831188.134 10 0 60958 45000.00000 0 -12955184.263 10610584.043 19268660.443 10 0 60958 45900.00000 0 -15176520.213 10995034.982 17332791.853 10 0 60958 46800.00000 0 -17111085.092 11486573.805 15061027.677 10 0 60958 47700.00000 0 -18718650.579 12037385.592 12497325.070 10 0 60958 48600.00000 0 -19970540.798 12594217.832 9691313.027 10 0 60958 49500.00000 0 -20850628.340 13100769.279 6697341.551 10 0 60958 50400.00000 0 -21355819.812 13500223.856 3573437.374 10 0 60958 51300.00000 0 -21496010.522 13737823.076 380185.640 10 0 60958 52200.00000 0 -21293510.013 13763368.403 -2820441.279 10 0 60958 53100.00000 0 -20781962.087 13533547.351 -5966285.305 10 0 60958 54000.00000 0 -20004804.508 13013984.186 -8996211.071 10 0 60958 54900.00000 0 -19013332.908 12180927.340 -11851297.459 10 0 60958 55800.00000 0 -17864450.306 11022500.623 -14475988.517 10 0 60958 56700.00000 0 -16618197.117 9539463.621 -16819180.787 10 0 60958 57600.00000 0 -15335165.836 7745447.112 -18835225.263 10 0 60958 58500.00000 0 -14073909.727 5666651.621 -20484823.837 10 0 60958 59400.00000 0 -12888455.057 3341019.762 -21735802.238 10 0 60958 60300.00000 0 -11826022.131 816915.319 -22563743.961 10 0 60958 61200.00000 0 -10925051.488 -1848637.127 -22952472.397 10 0 60958 62100.00000 0 -10213618.731 -4592079.649 -22894371.468 10 0 60958 63000.00000 0 -9708304.942 -7345727.509 -22390538.186 10 0 60958 63900.00000 0 -9413570.303 -10040354.912 -21450763.919 10 0 60958 64800.00000 0 -9321657.198 -12607852.431 -20093344.510 10 0 60958 65700.00000 0 -9413026.514 -14983845.398 -18344722.758 10 0 60958 66600.00000 0 -9657308.196 -17110164.012 -16238970.204 10 0 60958 67500.00000 0 -10014725.194 -18937062.101 -13817118.362 10 0 60958 68400.00000 0 -10437929.704 -20425092.012 -11126352.663 10 0 60958 69300.00000 0 -10874173.023 -21546557.553 -8219085.300 10 0 60958 70200.00000 0 -11267716.086 -22286484.846 -5151925.644 10 0 60958 71100.00000 0 -11562377.526 -22643071.394 -1984569.100 10 0 60958 72000.00000 0 -11704110.324 -22627595.805 1221373.006 10 0 60958 72900.00000 0 -11643497.029 -22263793.590 4403578.792 10 0 60958 73800.00000 0 -11338057.283 -21586726.963 7500232.135 10 0 60958 74700.00000 0 -10754269.567 -20641197.971 10451225.558 10 0 60958 75600.00000 0 -9869221.529 -19479773.274 13199325.924 10 0 60958 76500.00000 0 -8671819.233 -18160504.981 15691280.292 10 0 60958 77400.00000 0 -7163504.451 -16744444.231 17878840.768 10 0 60958 78300.00000 0 -5358449.915 -15293052.362 19719689.236 10 0 60958 79200.00000 0 -3283224.315 -13865618.152 21178245.085 10 0 60958 80100.00000 0 -975940.789 -12516788.790 22226341.537 10 0 60958 81000.00000 0 1515076.019 -11294316.936 22843758.812 10 0 60958 81900.00000 0 4133049.702 -10237116.787 23018605.133 10 0 60958 82800.00000 0 6814866.519 -9373708.993 22747539.229 10 0 60958 83700.00000 0 9493458.165 -8721117.987 22035830.837 10 0 60958 84600.00000 0 12100355.592 -8284266.551 20897258.380 10 0 60958 85500.00000 0 14568309.620 -8055891.976 19353845.741 10 0 60959 0.00000 0 16833871.083 -8016986.710 17435442.927 10 0 60959 900.00000 0 18839826.070 -8137744.816 15179156.825 10 0 60959 1800.00000 0 20537383.246 -8378974.657 12628644.615 10 0 60959 2700.00000 0 21888027.235 -8693918.780 9833278.936 10 0 60959 3600.00000 0 22864958.266 -9030405.035 6847202.219 10 0 60959 4500.00000 0 23454059.286 -9333238.738 3728286.535 10 0 60959 5400.00000 0 23654349.941 -9546735.391 537018.446 10 0 60959 6300.00000 0 23477907.826 -9617287.053 -2664670.088 10 0 60959 7200.00000 0 22949259.811 -9495853.630 -5814602.247 10 0 60959 8100.00000 0 22104268.551 -9140273.126 -8851564.957 10 0 60959 9000.00000 0 20988560.388 -8517292.078 -11716501.782 10 0 60959 9900.00000 0 19655560.434 -7604228.946 -14353666.374 10 0 60959 10800.00000 0 18164217.243 -6390198.429 -16711713.457 10 0 60959 11700.00000 0 16576512.730 -4876843.077 -18744705.487 10 0 60959 12600.00000 0 14954862.214 -3078539.318 -20413014.737 10 0 60959 13500.00000 0 13359514.152 -1022067.147 -21684102.715 10 0 60959 14400.00000 0 11846059.166 1254244.579 -22533161.233 10 0 60959 15300.00000 0 10463153.360 3701863.120 -22943602.232 10 0 60959 16200.00000 0 9250551.813 6263832.240 -22907386.487 10 0 60959 17100.00000 0 8237534.962 8876914.665 -22425184.460 10 0 60959 18000.00000 0 7441793.971 11474007.824 -21506365.930 10 0 60959 18900.00000 0 6868821.637 13986732.463 -20168818.373 10 0 60959 19800.00000 0 6511833.940 16348086.248 -18438597.449 10 0 60959 20700.00000 0 6352224.805 18495051.483 -16349416.379 10 0 60959 21600.00000 0 6360533.907 20371047.961 -13941984.196 10 0 60959 22500.00000 0 6497885.520 21928128.289 -11263206.016 10 0 60959 23400.00000 0 6717836.331 23128823.917 -8365261.356 10 0 60959 24300.00000 0 6968552.662 23947564.814 -5304579.094 10 0 60959 25200.00000 0 7195223.617 24371613.918 -2140729.820 10 0 60959 26100.00000 0 7342606.645 24401478.002 1064741.891 10 0 60959 27000.00000 0 7357596.574 24050778.979 4249521.617 10 0 60959 27900.00000 0 7191708.403 23345592.458 7351741.378 10 0 60959 28800.00000 0 6803368.119 22323282.932 10311183.654 10 0 60959 29700.00000 0 6159914.252 21030886.036 13070449.402 10 0 60959 30600.00000 0 5239225.493 19523107.185 15576067.287 10 0 60959 31500.00000 0 4030905.724 17860021.590 17779522.953 10 0 60959 32400.00000 0 2536976.665 16104572.708 19638189.051 10 0 60959 33300.00000 0 772049.032 14319973.934 21116139.067 10 0 60959 34200.00000 0 -1237035.080 12567121.887 22184830.365 10 0 60959 35100.00000 0 -3452074.044 10902128.470 22823644.629 10 0 60959 36000.00000 0 -5824857.097 9374073.466 23020276.457 10 0 60959 36900.00000 0 -8298938.010 8023069.997 22770963.742 10 0 60959 37800.00000 0 -10811759.578 6878721.876 22080556.121 10 0 60959 38700.00000 0 -13297042.173 5959035.702 20962420.576 10 0 60959 39600.00000 0 -15687338.751 5269831.735 19438185.984 10 0 60959 40500.00000 0 -17916651.856 4804677.122 17537331.086 10 0 60959 41400.00000 0 -19923005.395 4545343.554 15296623.032 10 0 60959 42300.00000 0 -21650865.459 4462769.870 12759416.332 10 0 60959 43200.00000 0 -23053310.341 4518489.195 9974824.566 10 0 60959 44100.00000 0 -24093859.794 4666460.829 6996779.673 10 0 60959 45000.00000 0 -24747887.365 4855230.103 3882996.053 10 0 60959 45900.00000 0 -25003556.487 5030325.411 693858.635 10 0 60959 46800.00000 0 -24862240.536 5136791.352 -2508744.064 10 0 60959 47700.00000 0 -24338408.677 5121750.808 -5662619.437 10 0 60959 48600.00000 0 -23458981.260 4936887.099 -8706479.564 10 0 60959 49500.00000 0 -22262181.210 4540740.355 -11581135.451 10 0 60959 50400.00000 0 -20795929.060 3900719.877 -14230652.957 10 0 60959 51300.00000 0 -19115848.395 2994745.778 -16603447.382 10 0 60959 52200.00000 0 -17282965.225 1812448.801 -18653294.767 10 0 60959 53100.00000 0 -15361197.787 355875.755 -20340239.555 10 0 60959 54000.00000 0 -13414742.194 -1360331.212 -21631380.406 10 0 60959 54900.00000 0 -11505463.743 -3309290.988 -22501518.395 10 0 60959 55800.00000 0 -9690403.505 -5452762.422 -22933654.508 10 0 60959 56700.00000 0 -8019504.878 -7742510.482 -22919326.417 10 0 60959 57600.00000 0 -6533655.467 -10122103.747 -22458777.672 10 0 60959 58500.00000 0 -5263126.298 -12529068.930 -21560955.725 10 0 60959 59400.00000 0 -4226473.500 -14897312.910 -20243338.611 10 0 60959 60300.00000 0 -3429947.963 -17159711.297 -18531593.506 10 0 60959 61200.00000 0 -2867436.967 -19250755.279 -16459073.737 10 0 60959 62100.00000 0 -2520939.086 -21109145.884 -14066164.112 10 0 60959 63000.00000 0 -2361551.052 -22680226.855 -11399487.568 10 0 60959 63900.00000 0 -2350923.411 -23918154.042 -8510989.017 10 0 60959 64800.00000 0 -2443121.897 -24787710.348 -5456914.880 10 0 60959 65700.00000 0 -2586814.152 -25265690.311 -2296708.953 10 0 60959 66600.00000 0 -2727687.699 -25341796.681 908152.925 10 0 60959 67500.00000 0 -2810995.374 -25019012.162 4095365.811 10 0 60959 68400.00000 0 -2784119.246 -24313431.776 7203011.909 10 0 60959 69300.00000 0 -2599043.604 -23253564.168 10170765.762 10 0 60959 70200.00000 0 -2214631.785 -21879132.512 12941064.548 10 0 60959 71100.00000 0 -1598610.349 -20239426.596 15460220.691 10 0 60959 72000.00000 0 -729176.793 -18391276.229 17679455.482 10 0 60959 72900.00000 0 403836.849 -16396731.508 19555834.369 10 0 60959 73800.00000 0 1798293.354 -14320547.210 21053086.796 10 0 60959 74700.00000 0 3439600.725 -12227576.156 22142295.952 10 0 60959 75600.00000 0 5301090.137 -10180179.554 22802446.396 10 0 60959 76500.00000 0 7344906.094 -8235761.092 23020820.266 10 0 60959 77400.00000 0 9523372.436 -6444526.017 22793235.494 10 0 60959 78300.00000 0 11780778.377 -4847556.829 22124122.209 10 0 60959 79200.00000 0 14055511.623 -3475283.975 21026436.274 10 0 60959 80100.00000 0 16282451.322 -2346413.688 19521411.605 10 0 60959 81000.00000 0 18395522.933 -1467356.269 17638155.621 10 0 60959 81900.00000 0 20330310.205 -832177.602 15413094.864 10 0 60959 82800.00000 0 22026616.797 -423075.259 12889280.463 10 0 60959 83700.00000 0 23430871.773 -211358.818 10115565.720 10 0 60959 84600.00000 0 24498279.153 -158893.191 7145670.501 10 0 60959 85500.00000 0 25194621.955 -219944.338 4037149.538 10 0 60960 0.00000 0 25497644.944 -343349.784 850284.053 10 0 60960 900.00000 0 25397957.702 -474922.565 -2353084.124 10 0 60960 1800.00000 0 24899418.925 -559986.801 -5510749.256 10 0 60960 2700.00000 0 24018985.289 -545937.615 -8561351.660 10 0 60960 3600.00000 0 22786029.825 -384716.312 -11445572.886 10 0 60960 4500.00000 0 21241157.522 -35095.220 -14107294.064 10 0 60960 5400.00000 0 19434567.055 535325.753 -16494694.010 10 0 60960 6300.00000 0 17424026.706 1348496.755 -18561265.103 10 0 60960 7200.00000 0 15272548.908 2414740.127 -20266726.492 10 0 60960 8100.00000 0 13045860.688 3732068.580 -21577816.312 10 0 60960 9000.00000 0 10809775.926 5286030.036 -22468946.950 10 0 60960 9900.00000 0 8627579.479 7050087.454 -22922710.198 10 0 60960 10800.00000 0 6557532.752 8986519.301 -22930222.052 10 0 60960 11700.00000 0 4650605.059 11047804.286 -22491300.189 10 0 60960 12600.00000 0 2948525.651 13178433.307 -21614470.344 10 0 60960 13500.00000 0 1482237.637 15317073.422 -20316801.269 10 0 60960 14400.00000 0 270817.981 17398993.586 -18623571.330 10 0 60960 15300.00000 0 -679091.927 19358650.579 -16567773.150 10 0 60960 16200.00000 0 -1373322.359 21132326.635 -14189466.038 10 0 60960 17100.00000 0 -1829677.898 22660707.882 -11534989.022 10 0 60960 18000.00000 0 -2076929.163 23891295.086 -8656050.265 10 0 60960 18900.00000 0 -2153337.945 24780545.223 -5608711.213 10 0 60960 19800.00000 0 -2104779.859 25295653.845 -2452286.047 10 0 60960 20700.00000 0 -1982545.674 25415903.437 751821.197 10 0 60960 21600.00000 0 -1840916.040 25133521.561 3941318.267 10 0 60960 22500.00000 0 -1734613.677 24454013.366 7054240.841 10 0 60960 23400.00000 0 -1716242.010 23395955.441 10030158.788 10 0 60960 24300.00000 0 -1833819.410 21990260.725 12811348.691 10 0 60960 25200.00000 0 -2128513.728 20278946.358 15343909.760 10 0 60960 26100.00000 0 -2632672.894 18313457.083 17578801.771 10 0 60960 27000.00000 0 -3368234.548 16152615.010 19472785.559 10 0 60960 27900.00000 0 -4345581.428 13860281.745 20989248.865 10 0 60960 28800.00000 0 -5562890.399 11502830.309 22098902.721 10 0 60960 29700.00000 0 -7006002.369 9146531.572 22780336.244 10 0 60960 30600.00000 0 -8648818.713 6854962.963 23020420.393 10 0 60960 31500.00000 0 -10454208.101 4686545.810 22814553.970 10 0 60960 32400.00000 0 -12375386.695 2692312.016 22166747.939 10 0 60960 33300.00000 0 -14357715.311 913991.119 21089546.855 10 0 60960 34200.00000 0 -16340839.934 -617504.447 19603788.928 10 0 60960 35100.00000 0 -18261087.933 -1883134.458 17738208.964 10 0 60960 36000.00000 0 -20054021.556 -2876283.735 15528891.078 10 0 60960 36900.00000 0 -21657043.549 -3602790.646 13018580.749 10 0 60960 37800.00000 0 -23011947.169 -4080450.732 10255868.329 10 0 60960 38700.00000 0 -24067304.804 -4338016.653 7294258.640 10 0 60960 39600.00000 0 -24780595.536 -4413736.567 4191143.582 10 0 60960 40500.00000 0 -25119982.312 -4353492.329 1006696.808 10 0 60960 41400.00000 0 -25065663.703 -4208615.982 -2197288.725 10 0 60960 42300.00000 0 -24610742.443 -4033476.633 -5358598.032 10 0 60960 43200.00000 0 -23761573.198 -3882939.930 -8415802.923 10 0 60960 44100.00000 0 -22537573.632 -3809807.971 -11309458.669 10 0 60960 45000.00000 0 -20970505.397 -3862348.671 -13983264.674 10 0 60960 45900.00000 0 -19103254.060 -4082020.080 -16385166.036 10 0 60960 46800.00000 0 -16988157.996 -4501487.159 -18468373.921 10 0 60960 47700.00000 0 -14684955.602 -5143016.304 -20192284.220 10 0 60960 48600.00000 0 -12258436.199 -6017317.034 -21523276.059 10 0 60960 49500.00000 0 -9775892.615 -7122881.360 -22435374.090 10 0 60960 50400.00000 0 -7304481.798 -8445850.335 -22910761.245 10 0 60960 51300.00000 0 -4908603.714 -9960414.942 -22940131.597 10 0 60960 52200.00000 0 -2647407.959 -11629735.787 -22522876.146 10 0 60960 53100.00000 0 -572532.195 -13407344.063 -21667097.629 10 0 60960 54000.00000 0 1273833.358 -15238965.690 -20389453.838 10 0 60960 54900.00000 0 2860474.902 -17064692.553 -18714832.338 10 0 60960 55800.00000 0 4168214.205 -18821409.785 -16675862.833 10 0 60960 56700.00000 0 5190454.567 -20445377.059 -14312276.758 10 0 60960 57600.00000 0 5933192.019 -21874855.137 -11670126.768 10 0 60960 58500.00000 0 6414492.854 -23052666.831 -8800881.781 10 0 60960 59400.00000 0 6663461.321 -23928584.253 -5760415.791 10 0 60960 60300.00000 0 6718742.924 -24461441.584 -2607910.937 10 0 60960 61200.00000 0 6626628.513 -24620884.271 595302.889 10 0 60960 62100.00000 0 6438841.134 -24388681.102 3786948.363 10 0 60960 63000.00000 0 6210100.946 -23759544.305 6905016.759 10 0 60960 63900.00000 0 5995572.577 -22741423.725 9888975.273 10 0 60960 64800.00000 0 5848303.897 -21355263.488 12680941.747 10 0 60960 65700.00000 0 5816765.105 -19634232.156 15226803.886 10 0 60960 66600.00000 0 5942592.290 -17622459.435 17477261.483 10 0 60960 67500.00000 0 6258630.574 -15373332.882 19388772.102 10 0 60960 68400.00000 0 6787358.941 -12947426.055 20924382.894 10 0 60960 69300.00000 0 7539762.618 -10410144.456 22054433.611 10 0 60960 70200.00000 0 8514699.980 -7829186.767 22757118.562 10 0 60960 71100.00000 0 9698790.351 -5271926.003 23018897.913 10 0 60960 72000.00000 0 11066827.484 -2802818.082 22834751.502 10 0 60960 72900.00000 0 12582701.863 -480943.786 22208271.080 10 0 60960 73800.00000 0 14200794.070 1642215.642 21151589.658 10 0 60960 74700.00000 0 15867782.100 3524678.686 19685149.341 10 0 60960 75600.00000 0 17524788.456 5135462.277 17837311.755 10 0 60960 76500.00000 0 19109778.758 6455618.211 15643817.848 10 0 60960 77400.00000 0 20560112.922 7478765.248 13147106.506 10 0 60960 78300.00000 0 21815143.404 8211095.579 10395503.980 10 0 60960 79200.00000 0 22818752.587 8670855.960 7442298.631 10 0 60960 80100.00000 0 23521723.320 8887325.496 4344717.832 10 0 60960 81000.00000 0 23883843.305 8899333.173 1162825.984 10 0 60960 81900.00000 0 23875654.345 8753377.429 -2041635.642 10 0 60960 82800.00000 0 23479772.006 8501427.023 -5206444.970 10 0 60960 83700.00000 0 22691719.142 8198496.173 -8270107.894 10 0 60960 84600.00000 0 21520236.658 7900096.668 -11173056.033 10 0 60960 85500.00000 0 19987056.976 7659675.140 -13858809.679 99